Погода в Йиндржихув Градеце

Чехия     49°08′36″N   15°00′07″E
темп.,
°C
ветер,
м/с
пор.,
м/с
влажн.,
%
обл.,
%
осадки,
мм/ч
давл.,
гПа
погр.,
м
15 апреля, чт
чт1523:00−1ссз3670100 0.0 1026148
02:00−1сз2773100 0.0 1026179
05:00−2сз2680100 0.0 1026160
08:000сз4873100 0.0 1026524
11:00+3ссз6755100 0.1 10251688
14:00+3ссз7861100 0.2 10251518
17:00+2ссз6870100 0.3 10241131
20:000ссз4990100 0.4 1024566
16 апреля, пт
пт1623:00−1сз499387 0.3 1025475
02:00−2зсз489779 0.4 1024417
05:00−2з489877 0.2 1023424
08:000зсз568897 0.3 1023542
11:00+2сз4578100 0.1 1023785
14:00+4ссз4476100 0.2 1023975
17:00+2ссз4594100 0.1 1023397
20:00+1ссз2599100 0.1 1024293
17 апреля, сб
сб1723:00+1ссз2397100 0.1 1024344
02:00+1зсз1298100 0.1 1023167
05:00+1зсз22100100 0.0 1022145
08:00+2ссз2393100 0.1 1022363
11:00+4ссз327491 0.1 1022936
14:00+5с2268100 0.1 10211076
17:00+5ссв4473100 0.0 1020661
20:00+3св3588100 0.0 1022249
18 апреля, вс
вс1823:00+2с2484100 0.0 1022147
02:00+2с2491100 0.0 1021163
05:00+2ссз2394100 0.0 1021186
08:00+2ссз2498100 0.1 1021267
11:00+3ссз2595100 0.0 1021483
14:00+4с2594100 0.4 1021646
17:00+5с2592100 0.1 1020731
20:00+4ссз2293100 0.2 102043
19 апреля, пн
пн1923:00+4ссз2794100 0.5 1020279
02:00+4ссз3894100 0.6 1020301
05:00+3ссз2597100 0.1 1019200
08:00+4ссз2494100 0.4 1019264
11:00+8ссв4472100 0.1 10181075
14:00+9ссв4566100 0.6 10171183
17:00+9ссв5669100 1.1 10161038
20:00+7ссв4885100 1.9 1016378